06:43
Airports
History
Links
Donate
Help keep this website running!
PayPal
Bitcoin
This page is community maintained. The information is intended for PC simulator navigation or reference.
Always use approved charts for navigation.
LS54
Brians
Brians (LS54)
Zachary, Louisiana, United States (70791)
4
Lat/Lng:30° 41' 30.66" N / 91° 11' 15.39" W
30.691851 / -91.187608
Elevation:65'ft / 20mMSL
ID / ICAO:LS54
Runways:1
Longest:04-22
Grass 451m / 1,478ft
Nearby Weather05:53 GMT 2017-12-12
Nearby weather at KBTR, Baton Rouge Metropolitan, Ryan located 11.2 nautical miles from LS54
Altimeter: 30.11
Visibility: 10.0 statute miles
Wind: 5 knots (from 250°)
Temp: 9°c / 48°f
Humidity: 76.0%

METAR: KBTR 120553Z 25005KT 10SM CLR 09/05 A3011 RMK AO2 SLP194 T00890050 10150 20089 402110017 58013

(Powered by phpweather)
Nearby VORs <50NM
Nearby NDBs
Runway 04 / 22
Dimensions:450.6 x 18.3m 1478' x 60'ft
Surface:Grass
Runway 04 [A]Runway 22 [B]
Heading:044°TH 224°TH
Lat:
Lng:
30° 41' 25.34"N
91° 11' 21.37"W
30° 41' 35.99"N
91° 11' 9.41"W
User Notes and Comments
30° 41' 30.66" N / 91° 11' 15.39" W
Distance To
Airport ID:
Nearby Airports
4 AP Airpark 3.3 NM
7LA9 NE 43°
(R) Whitehead 4.5 NM
LS00 ESE 104°
(R) Nauga Field 7.2 NM
LS35 NW 312°
(R) Annison Private 7.6 NM
LS25 E 83°
(R) Jackson 8.2 NM
4LA3 N 349°
(R) Howell 1 9.9 NM
2LA6 N
(C) Baton Rouge Metropolitan, Ryan 11.2 NM
KBTR ( WX ) SSE 168°
VFR Chart
Flight Planning at SkyVector.com